Total_Precipitation_Accumulation
2.00 2.10 2.07 2.03 1.91 2.24 2.65 2.88 2.59 2.87 2.89 2.50 2.18 2.06 2.03 2.00 2.19 2.39 2.25 2.42 2.32 2.27 2.48 2.53 2.33 2.09 1.92 1.62 1.39 1.19 1.04 1.00 0.93 0.76 0.63 0.60 0.53 0.46 0.45 0.46 0.45 0.42 0.39
2.47 2.53 2.40 2.33 2.12 2.13 2.42 2.63 2.63 2.86 2.75 2.60 2.03 1.93 1.89 2.03 2.22 2.26 2.27 2.73 2.67 2.43 2.42 2.56 2.56 2.41 2.25 2.11 1.80 1.53 1.32 1.21 1.11 0.87 0.68 0.63 0.59 0.52 0.49 0.51 0.55 0.50 0.38
2.94 2.82 2.61 2.31 2.21 2.26 2.40 2.38 2.40 2.50 2.36 2.28 2.04 2.11 2.08 2.00 1.89 1.94 2.10 2.31 2.24 2.08 2.07 2.17 2.38 2.53 2.68 2.67 2.46 2.29 1.85 1.46 1.23 0.97 0.77 0.62 0.55 0.49 0.47 0.50 0.56 0.54 0.41
2.85 2.78 2.47 2.13 2.19 2.31 2.31 2.29 2.14 2.23 2.25 2.31 2.31 2.15 2.23 2.11 1.72 1.69 1.76 1.73 1.82 1.67 1.83 1.93 2.04 2.24 2.68 3.08 3.21 3.07 2.60 1.93 1.45 1.15 0.93 0.75 0.61 0.51 0.46 0.47 0.53 0.52 0.40
2.67 2.72 2.41 2.29 2.21 2.25 2.15 1.98 2.20 2.31 2.32 2.35 2.18 2.08 1.88 1.68 1.45 1.30 1.27 1.16 1.33 1.52 1.70 1.74 1.80 1.88 2.37 3.10 3.72 3.88 3.52 2.72 2.02 1.55 1.32 1.10 0.90 0.70 0.55 0.51 0.50 0.45 0.38
2.31 2.43 2.23 2.16 2.26 2.30 2.13 2.13 2.31 2.31 2.09 2.18 2.00 1.83 1.63 1.35 1.23 1.11 0.95 0.95 0.93 0.90 1.14 1.50 1.79 1.52 1.86 2.48 3.13 3.60 3.85 3.50 2.78 2.23 1.82 1.49 1.27 1.03 0.75 0.63 0.56 0.50 0.43
1.98 2.20 2.05 2.25 2.18 2.05 1.89 1.86 1.95 1.95 1.72 1.98 2.18 1.76 1.33 1.11 1.00 0.86 0.85 0.91 0.85 0.91 1.14 1.47 1.66 1.76 1.64 1.65 1.95 2.45 3.28 3.67 3.40 2.86 2.40 2.00 1.70 1.41 1.03 0.82 0.71 0.59 0.53
2.05 1.90 2.00 1.88 1.84 1.90 1.70 1.59 1.75 1.75 1.53 1.81 1.93 1.89 1.40 1.19 0.99 0.69 0.74 0.75 0.84 1.03 1.06 1.16 1.46 1.64 1.57 1.85 1.52 1.51 2.24 2.96 3.42 3.35 2.91 2.38 1.98 1.66 1.34 1.13 0.91 0.71 0.60
2.33 2.16 1.99 1.80 1.75 1.63 1.61 1.57 1.63 1.65 1.56 1.53 1.59 1.74 1.43 1.14 0.97 0.68 0.59 0.67 0.90 1.14 1.12 1.22 1.26 1.41 1.44 1.67 1.72 1.59 1.57 1.95 2.69 3.45 3.48 2.88 2.20 1.68 1.37 1.33 1.24 0.99 0.78
2.59 2.30 2.10 1.86 1.63 1.48 1.59 1.34 1.42 1.62 1.68 1.44 1.40 1.38 1.31 1.41 1.39 1.06 0.73 0.64 0.87 1.02 1.08 1.03 1.13 1.36 1.50 1.68 1.83 1.85 1.63 1.56 1.98 2.80 3.34 3.26 2.75 2.11 1.67 1.59 1.79 1.70 1.26
2.37 2.10 1.97 1.86 1.61 1.41 1.39 1.37 1.54 1.52 1.50 1.40 1.42 1.41 1.48 1.59 1.45 1.34 1.08 0.95 0.96 0.88 0.90 0.95 1.11 1.29 1.46 1.70 1.97 2.02 2.14 1.82 1.66 1.86 2.30 2.60 2.72 2.49 2.13 2.07 2.48 2.70 2.34
2.01 1.90 1.78 1.75 1.58 1.42 1.40 1.36 1.44 1.49 1.53 1.57 1.55 1.51 1.57 1.53 1.51 1.65 1.45 1.24 1.15 0.96 0.95 1.05 1.22 1.37 1.47 1.61 1.65 1.80 1.90 1.89 1.77 1.69 1.74 1.88 2.12 2.29 2.33 2.41 2.71 3.04 3.18
1.56 1.60 1.68 1.71 1.56 1.47 1.49 1.58 1.56 1.48 1.54 1.61 1.56 1.62 1.67 1.60 1.68 1.81 1.76 1.50 1.37 1.26 1.30 1.29 1.28 1.45 1.44 1.64 1.79 1.68 1.46 1.49 1.48 1.44 1.40 1.37 1.47 1.71 1.88 2.00 2.31 2.68 3.00
1.46 1.51 1.68 1.72 1.61 1.52 1.46 1.65 1.60 1.59 1.66 1.64 1.56 1.78 1.82 1.64 1.81 2.02 2.09 2.06 1.84 1.74 1.76 1.73 1.49 1.41 1.47 1.60 1.73 1.60 1.44 1.38 1.15 1.02 0.98 1.00 1.02 1.14 1.28 1.43 1.62 1.81 2.08
1.59 1.65 1.70 1.80 1.85 1.87 1.83 1.86 1.74 1.76 1.92 1.92 1.86 1.95 1.96 1.85 1.90 2.00 2.17 2.29 2.28 2.17 2.07 1.99 1.72 1.56 1.48 1.47 1.55 1.52 1.64 1.50 1.13 0.93 0.82 0.78 0.76 0.79 0.86 0.99 1.15 1.30 1.44
1.70 1.73 1.71 1.74 1.84 1.88 1.88 1.96 1.93 1.99 2.15 2.13 2.17 2.25 2.18 1.98 2.02 2.06 2.14 2.31 2.49 2.51 2.30 2.00 1.78 1.62 1.55 1.40 1.46 1.35 1.44 1.36 1.06 0.92 0.81 0.73 0.67 0.67 0.71 0.77 0.86 0.99 1.11
1.66 1.70 1.68 1.63 1.60 1.69 1.85 2.01 2.00 2.11 2.21 2.24 2.22 2.16 2.08 2.10 2.16 2.06 2.12 2.22 2.37 2.53 2.33 2.06 1.93 1.85 1.81 1.72 1.61 1.36 1.20 1.12 1.00 1.00 0.87 0.74 0.71 0.71 0.71 0.72 0.76 0.83 0.93
1.69 1.66 1.64 1.59 1.53 1.61 1.84 1.99 2.09 2.31 2.40 2.30 2.21 2.15 2.04 2.12 2.21 2.14 2.15 2.10 2.15 2.40 2.35 2.20 2.14 2.16 2.06 1.88 1.80 1.60 1.29 1.15 1.13 1.14 1.03 0.87 0.77 0.75 0.74 0.72 0.76 0.79 0.85
1.62 1.58 1.60 1.64 1.74 1.86 2.02 2.15 2.25 2.39 2.37 2.25 2.23 2.14 2.02 2.05 2.04 2.11 2.15 2.11 2.06 2.10 2.25 2.20 2.13 2.23 2.16 1.95 1.83 1.66 1.52 1.58 1.42 1.22 1.09 0.98 0.88 0.82 0.79 0.74 0.77 0.83 0.93
1.41 1.46 1.64 1.86 2.02 2.13 2.21 2.27 2.27 2.23 2.21 2.10 2.01 1.91 1.87 1.95 2.00 2.02 1.95 1.92 1.93 2.00 2.07 2.08 2.09 2.19 2.23 2.16 2.01 1.87 1.84 1.81 1.66 1.28 1.17 1.03 0.95 0.86 0.79 0.72 0.72 0.85 0.98
1.43 1.62 1.78 1.88 1.89 1.93 2.00 2.13 2.13 2.08 2.03 1.93 1.82 1.63 1.59 1.78 1.86 1.86 1.73 1.80 1.86 1.89 1.91 1.99 2.04 2.14 2.20 2.32 2.13 1.89 1.85 1.92 1.84 1.65 1.51 1.29 1.14 1.05 1.00 0.95 0.86 0.85 0.89
1.61 1.77 1.80 1.77 1.71 1.47 1.54 1.65 1.72 1.75 1.74 1.68 1.56 1.49 1.50 1.54 1.48 1.45 1.44 1.43 1.50 1.59 1.77 2.00 2.09 2.10 2.08 2.18 2.26 2.17 2.10 2.06 2.02 1.96 2.01 1.90 1.60 1.50 1.40 1.29 1.17 0.94 0.82
1.77 1.88 1.86 1.76 1.64 1.58 1.47 1.34 1.33 1.38 1.48 1.50 1.51 1.57 1.38 1.25 1.34 1.32 1.36 1.31 1.24 1.29 1.39 1.64 1.86 1.90 2.00 2.01 2.27 2.30 2.34 2.41 2.39 2.35 2.37 2.38 2.05 1.77 1.55 1.47 1.38 1.07 0.91
2.01 2.01 1.94 1.84 1.80 1.75 1.64 1.41 1.30 1.25 1.41 1.47 1.47 1.51 1.50 1.43 1.42 1.48 1.49 1.40 1.27 1.22 1.20 1.19 1.38 1.65 1.87 2.09 2.16 2.22 2.32 2.40 2.40 2.27 2.25 2.34 2.19 2.04 1.74 1.45 1.32 1.14 0.95
2.07 2.00 2.03 1.99 1.96 1.98 1.80 1.46 1.29 1.29 1.49 1.53 1.52 1.50 1.48 1.44 1.48 1.35 1.29 1.30 1.29 1.26 1.10 1.11 1.18 1.38 1.55 1.62 1.83 2.05 2.24 2.20 2.13 1.93 1.77 1.87 1.94 1.95 1.91 1.70 1.34 1.21 1.02
2.08 2.04 2.04 2.06 2.02 2.02 1.91 1.44 1.23 1.26 1.46 1.51 1.58 1.56 1.46 1.33 1.30 1.17 1.15 1.28 1.27 1.25 1.25 1.18 1.09 1.11 1.18 1.30 1.37 1.43 1.69 1.89 1.81 1.75 1.52 1.43 1.41 1.50 1.63 1.50 1.28 1.19 1.17